GW4382 Weather Reports


time (UTC)temp
C
wind
direction
speed
KPH
gust
KPH
rain 1hr
cm
rain 24hr
cm
rain mn
cm
humidity
%
barometer
mb
20260508010105 7 86 3.2 11.3 0.00 0.00 0.00 90 1016.7
20260508004558 7 84 3.2 11.3 0.00 0.00 0.00 90 1016.7
20260508003101 7 103 3.2 12.9 0.00 0.00 0.00 89 1016.8
20260508001555 7 88 3.2 11.3 0.00 0.00 0.00 90 1016.8
20260508000120 8 86 1.6 9.7 0.00 0.00 0.00 89 1016.8
20260507234557 8 0 3.2 9.7 0.00 0.00 0.00 89 1016.8
20260507233059 8 80 1.6 9.7 0.00 0.00 0.00 89 1016.9
20260507231600 8 96 3.2 14.5 0.00 0.00 0.00 89 1017.0
20260507230056 7 94 3.2 12.9 0.00 0.00 0.00 89 1017.0
20260507224559 7 71 1.6 9.7 0.00 0.00 0.00 88 1017.4
20260507223100 7 63 1.6 6.4 0.00 0.00 0.00 88 1017.3
20260507221602 7 102 3.2 9.7 0.00 0.00 0.00 88 1017.3
20260507220059 7 92 3.2 9.7 0.00 0.00 0.00 88 1017.3
20260507214559 8 90 0.0 9.7 0.00 0.00 0.00 87 1017.5
20260507213056 8 61 1.6 8.0 0.00 0.00 0.00 87 1017.5
20260507211628 8 63 1.6 11.3 0.00 0.00 0.00 87 1017.5
20260507210054 8 80 3.2 11.3 0.00 0.00 0.00 86 1017.4
20260507204556 8 88 3.2 14.5 0.00 0.00 0.00 86 1017.4
20260507203056 8 34 3.2 12.9 0.00 0.00 0.00 85 1017.2
20260507201557 9 55 3.2 8.0 0.00 0.00 0.00 84 1017.1
20260507200106 9 0 1.6 6.4 0.00 0.00 0.00 83 1016.9
20260507194557 10 90 0.0 4.8 0.00 0.00 0.00 82 1016.8
20260507193101 10 88 1.6 4.8 0.00 0.00 0.00 81 1016.7
20260507191559 10 96 0.0 6.4 0.00 0.00 0.00 80 1016.7
20260507190059 10 116 1.6 4.8 0.00 0.00 0.00 78 1016.6
20260507184558 11 0 1.6 6.4 0.00 0.00 0.00 76 1016.5
20260507183106 11 96 1.6 6.4 0.00 0.00 0.00 75 1016.4
20260507181557 11 104 0.0 6.4 0.00 0.00 0.00 75 1016.3
20260507180105 12 57 3.2 12.9 0.00 0.00 0.00 75 1016.3
20260507174630 12 57 1.6 6.4 0.00 0.00 0.00 77 1016.3
20260507173058 12 119 1.6 4.8 0.00 0.00 0.00 77 1016.3
20260507171610 12 0 0.0 6.4 0.00 0.00 0.00 77 1016.4
20260507170058 12 123 1.6 9.7 0.00 0.00 0.00 76 1016.4
20260507164556 12 116 1.6 6.4 0.00 0.00 0.00 77 1016.4
20260507163055 12 122 3.2 12.9 0.00 0.00 0.00 77 1016.3
20260507161559 12 0 1.6 9.7 0.00 0.00 0.00 77 1016.4
20260507160117 12 146 4.8 11.3 0.00 0.00 0.00 76 1016.4
20260507154558 12 119 1.6 12.9 0.00 0.00 0.00 76 1016.4
20260507153056 12 113 1.6 12.9 0.00 0.00 0.00 76 1016.5
20260507151600 12 90 0.0 4.8 0.00 0.00 0.00 75 1016.4
20260507150058 13 91 3.2 11.3 0.00 0.00 0.00 74 1016.5
20260507144555 13 0 0.0 6.4 0.00 0.00 0.00 73 1016.4
20260507143108 13 0 4.8 8.0 0.00 0.00 0.00 73 1016.5
20260507141617 13 123 3.2 8.0 0.00 0.00 0.00 72 1016.6
20260507140112 13 129 1.6 8.0 0.00 0.00 0.00 73 1016.7
20260507134600 13 150 3.2 9.7 0.00 0.00 0.00 75 1016.7
20260507133103 12 0 0.0 4.8 0.00 0.00 0.00 76 1016.6
20260507131620 12 215 0.0 6.4 0.00 0.00 0.00 77 1016.7
20260507130107 12 0 1.6 4.8 0.00 0.00 0.00 78 1016.7
20260507124601 12 171 1.6 6.4 0.00 0.00 0.00 77 1016.7
20260507123102 12 186 3.2 14.5 0.00 0.00 0.00 77 1016.7
20260507121558 11 138 1.6 6.4 0.00 0.00 0.00 76 1016.8
20260507120057 11 147 3.2 12.9 0.00 0.00 0.00 77 1017.0
20260507114557 12 142 3.2 11.3 0.00 0.00 0.00 76 1016.8
20260507113127 12 118 4.8 14.5 0.00 0.00 0.00 76 1016.8
20260507111556 12 146 4.8 16.1 0.00 0.00 0.00 75 1016.8
20260507110057 13 109 8.0 16.1 0.00 0.00 0.00 73 1016.8
20260507104609 13 115 3.2 11.3 0.00 0.00 0.00 70 1016.8
20260507103055 13 49 3.2 9.7 0.00 0.00 0.00 68 1017.0
20260507101556 14 135 1.6 6.4 0.00 0.00 0.00 68 1017.0
20260507100100 13 56 0.0 6.4 0.00 0.00 0.00 70 1017.1
20260507094606 13 152 1.6 9.7 0.00 0.00 0.00 69 1017.0
20260507093057 13 0 1.6 6.4 0.00 0.00 0.00 69 1017.0
20260507091555 15 123 1.6 11.3 0.00 0.00 0.00 68 1016.9
20260507090056 14 65 3.2 11.3 0.00 0.00 0.00 70 1016.8
20260507084600 13 173 4.8 11.3 0.00 0.00 0.00 71 1016.8
20260507083056 12 55 6.4 16.1 0.00 0.00 0.00 74 1016.8
20260507081556 12 144 3.2 9.7 0.00 0.00 0.00 78 1016.7
20260507074558 10 65 1.6 6.4 0.00 0.00 0.00 82 1016.8
20260507073059 10 29 3.2 12.9 0.00 0.00 0.00 83 1016.6
20260507071557 9 83 0.0 12.9 0.00 0.00 0.00 84 1016.6
20260507070109 9 36 3.2 8.0 0.00 0.00 0.00 86 1016.4
20260507064602 8 40 1.6 6.4 0.00 0.00 0.00 87 1016.4
20260507063058 8 28 3.2 6.4 0.00 0.00 0.00 88 1016.6
20260507061557 8 349 3.2 6.4 0.00 0.00 0.00 88 1016.4
20260507060058 8 0 1.6 8.0 0.00 0.00 0.00 88 1016.3
20260507054555 8 0 0.0 0.0 0.00 0.00 0.00 88 1016.1
20260507053059 7 0 0.0 0.0 0.00 0.00 0.00 88 1016.1
20260507051607 7 0 0.0 0.0 0.00 0.00 0.00 88 1016.2
20260507050112 7 0 0.0 0.0 0.00 0.00 0.00 88 1016.1
20260507044559 7 0 0.0 4.8 0.00 0.00 0.00 88 1016.0
20260507043057 7 0 0.0 3.2 0.00 0.00 0.00 88 1015.9
20260507041557 7 0 1.6 3.2 0.00 0.00 0.00 87 1015.9
20260507040106 7 23 0.0 4.8 0.00 0.00 0.00 87 1015.9
20260507034607 7 24 1.6 3.2 0.00 0.00 0.00 87 1015.8
20260507033100 8 24 1.6 4.8 0.00 0.00 0.00 87 1015.6
20260507031556 8 26 1.6 4.8 0.00 0.00 0.00 87 1015.6
20260507030056 8 31 1.6 6.4 0.00 0.00 0.00 87 1015.6
20260507024558 8 21 1.6 4.8 0.00 0.00 0.00 87 1015.6
20260507023057 8 20 1.6 4.8 0.00 0.00 0.00 87 1015.5
20260507021611 8 24 3.2 6.4 0.00 0.00 0.00 86 1015.4
20260507020059 8 30 1.6 4.8 0.00 0.00 0.00 86 1015.3
20260507014600 8 12 0.0 6.4 0.00 0.00 0.00 86 1015.2
20260507013057 8 360 1.6 6.4 0.00 0.00 0.00 86 1015.2
20260507011558 8 17 1.6 6.4 0.00 0.00 0.00 86 1015.3